Tracking 19280 objects as of 14-Nov-2018
HD Live streaming from Space Station
objects crossing your sky now

DIWATA 2B

Track DIWATA 2B now!
10-day predictions
DIWATA 2B is classified as:


NORAD ID: 43678
Int'l Code: 2018-084H
Perigee: 594.2 km
Apogee: 606.6 km
Inclination: 97.8 °
Period: 96.5 minutes
Semi major axis: 6971 km
RCS: Unknown
Launch date: October 29, 2018
Source: Philippines (Republic of the Philippines) (RP)
Launch site: TANEGASHIMA SPACE CENTER (TNSTA)

Uplink (MHz): 437.500
Downlink (MHz): 145.900
Beacon (MHz): 145.900
Mode: FM APRS Digipeater CW
Call sign: D1W2PH
Status: Unknown

aabbcc
Your satellite tracking list
Your tracking list is empty




NASA's NSSDC Master Catalog

Two Line Element Set (TLE):
1 43678U 18084H   18317.71482157 -.00000292  00000-0 -23462-4 0  9990
2 43678  97.8366  68.1676 0008901 307.9887  52.0526 14.91503573  2306
Source of the keplerian elements: AFSPC